Temp
-4 -4 -4 -4 -4 -4 -4 -4 -4 -4 -4 -4 -3 -3 -4 -4 -4 -4 -3 -3 -4 -4 -4 -3 -3 -3 -4 -4 -4 -3 -4 -3 -3 -1 -0 0 3 4 3 5 6 5 5 5 3 2 6 2 7 8 5 5 8 7
-4 -4 -4 -4 -4 -4 -4 -4 -4 -4 -4 -4 -3 -3 -3 -4 -4 -4 -4 -4 -4 -4 -4 -3 -2 -3 -3 -3 -4 -4 -4 -3 -3 -2 -2 -2 -1 -1 3 3 5 5 8 5 6 5 1 1 2 3 5 3 4 4
-4 -4 -4 -3 -4 -4 -4 -4 -4 -4 -4 -4 -4 -4 -4 -4 -4 -4 -4 -4 -4 -4 -4 -4 -2 -1 -2 -2 -2 -4 -4 -4 -4 -3 -3 -2 -2 1 3 1 1 2 2 0 2 -0 -0 0 1 3 4 2 2 2
-4 -4 -4 -4 -4 -4 -4 -4 -4 -4 -4 -4 -4 -4 -4 -4 -4 -4 -4 -3 -4 -4 -4 -3 -2 -2 -2 -3 -2 -3 -3 -4 -4 -4 -3 -3 -2 -0 -0 1 -0 -1 -1 -2 -3 -1 -1 -1 -0 0 0 1 0 -1
-5 -4 -5 -4 -5 -5 -4 -4 -4 -4 -4 -4 -4 -4 -4 -3 -4 -4 -3 -3 -3 -4 -6 -4 -4 -1 -2 -3 -4 -4 -4 -4 -4 -4 -3 -3 -1 -1 -1 -1 -2 -2 -2 -2 -1 -1 -0 -1 -1 -1 -1 -2 -2 -2
-5 -4 -5 -5 -5 -5 -4 -4 -5 -4 -4 -4 -4 -4 -4 -4 -4 -5 -4 -4 -5 -5 -5 -7 -3 -3 -3 -3 -4 -4 -4 -4 -4 -3 -2 -2 -3 -2 -2 -3 -4 -4 -1 -1 -2 -0 -1 -2 -2 -2 -2 -2 -2 -2
-4 -5 -5 -5 -5 -5 -5 -5 -5 -5 -5 -4 -4 -4 -4 -4 -5 -5 -4 -4 -5 -6 -6 -7 -6 -3 -3 -3 -3 -3 -3 -4 -4 -3 -3 -3 -4 -4 -4 -4 -4 -4 -2 -2 -2 -2 -3 -2 -3 -3 -3 -3 -3 -3
-4 -5 -5 -5 -5 -5 -5 -5 -5 -5 -5 -5 -5 -5 -5 -5 -5 -5 -5 -5 -6 -6 -5 -7 -6 -3 -4 -4 -3 -3 -3 -4 -5 -4 -4 -5 -5 -5 -5 -4 -5 -4 -4 -3 -3 -4 -4 -4 -4 -4 -3 -2 -2 -3
-5 -5 -5 -5 -5 -5 -5 -5 -5 -5 -5 -4 -4 -4 -6 -6 -6 -5 -6 -6 -6 -5 -6 -6 -4 -4 -4 -4 -4 -4 -3 -4 -5 -5 -5 -5 -6 -6 -5 -5 -5 -5 -4 -4 -4 -4 -4 -4 -4 -3 -1 -1 -3 -3
-5 -5 -5 -5 -4 -4 -5 -5 -5 -5 -4 -4 -4 -5 -5 -6 -6 -5 -5 -5 -5 -5 -5 -6 -5 -4 -6 -5 -4 -4 -3 -3 -4 -4 -4 -5 -7 -6 -5 -5 -5 -5 -5 -5 -5 -5 -4 -4 -4 -2 -2 -1 -2 -2
-4 -5 -5 -4 -4 -4 -5 -5 -4 -4 -4 -5 -5 -5 -5 -5 -5 -5 -5 -6 -5 -5 -5 -5 -6 -6 -6 -6 -5 -5 -4 -4 -4 -4 -4 -6 -7 -7 -6 -6 -6 -6 -5 -5 -5 -6 -5 -5 -5 -4 -4 -3 -3 -3
-5 -5 -4 -4 -4 -4 -3 -3 -4 -4 -5 -5 -6 -6 -5 -5 -4 -8 -11 -7 -7 -6 -6 -6 -6 -6 -6 -6 -5 -5 -5 -5 -5 -5 -5 -7 -7 -7 -7 -7 -7 -7 -6 -6 -4 -4 -3 -3 -3 -3 -4 -4 -4 -4
-5 -4 -4 -4 -4 -3 -3 -3 -3 -4 -4 -5 -5 -5 -5 -6 -9 -10 -8 -7 -6 -6 -6 -6 -6 -7 -5 -6 -6 -6 -6 -6 -6 -6 -7 -8 -8 -8 -7 -7 -6 -4 -4 -4 -4 -4 -4 -4 -4 -4 -4 -5 -5 -5
-4 -4 -4 -4 -3 -3 -3 -3 -3 -3 -5 -5 -6 -9 -10 -10 -8 -7 -8 -7 -7 -7 -7 -7 -6 -6 -6 -7 -7 -7 -7 -5 -6 -7 -8 -8 -8 -8 -7 -6 -5 -6 -5 -5 -5 -5 -5 -5 -5 -5 -5 -6 -5 -5
-4 -4 -4 -3 -3 -3 -3 -3 -3 -4 -5 -7 -7 -9 -8 -8 -8 -9 -9 -9 -8 -8 -8 -7 -6 -6 -7 -7 -7 -7 -7 -7 -7 -7 -8 -9 -8 -7 -7 -6 -6 -6 -6 -6 -6 -5 -6 -6 -6 -6 -6 -6 -6 -6
-4 -3 -3 -3 -3 -3 -3 -3 -4 -5 -7 -7 -8 -8 -8 -9 -9 -10 -10 -10 -9 -8 -7 -7 -9 -9 -8 -8 -9 -8 -9 -8 -8 -8 -9 -8 -8 -7 -7 -7 -7 -7 -6 -7 -6 -6 -6 -6 -6 -7 -7 -7 -7 -7
-4 -4 -4 -3 -3 -3 -3 -3 -5 -6 -7 -8 -9 -9 -10 -10 -10 -11 -11 -10 -8 -7 -7 -9 -9 -8 -8 -9 -9 -8 -8 -8 -9 -10 -9 -9 -8 -8 -8 -7 -7 -7 -7 -7 -7 -7 -7 -8 -8 -8 -8 -8 -8 -8
-4 -4 -4 -3 -3 -3 -3 -5 -6 -6 -8 -9 -9 -10 -10 -11 -11 -11 -10 -9 -8 -7 -7 -9 -8 -10 -9 -9 -9 -9 -11 -11 -10 -10 -10 -9 -9 -8 -8 -8 -8 -8 -8 -8 -8 -9 -9 -9 -9 -9 -10 -10 -10 -10
-4 -4 -3 -3 -3 -4 -4 -6 -6 -7 -8 -9 -9 -9 -10 -11 -11 -11 -10 -9 -9 -8 -9 -11 -13 -12 -11 -11 -10 -11 -11 -11 -11 -11 -10 -10 -9 -9 -9 -9 -9 -9 -9 -9 -9 -9 -9 -10 -10 -10 -11 -11 -11 -12
-3 -3 -3 -3 -3 -4 -5 -7 -8 -7 -8 -8 -8 -8 -10 -11 -12 -11 -11 -10 -10 -11 -12 -13 -13 -14 -14 -13 -12 -10 -10 -10 -10 -10 -11 -11 -10 -9 -9 -9 -10 -10 -10 -10 -10 -11 -10 -11 -11 -12 -12 -13 -12 -12
-3 -3 -3 -4 -4 -5 -6 -7 -8 -8 -8 -8 -8 -8 -8 -9 -11 -12 -12 -12 -12 -13 -14 -14 -14 -14 -13 -12 -10 -10 -9 -9 -9 -9 -11 -11 -11 -10 -10 -10 -10 -10 -10 -10 -11 -12 -12 -13 -13 -13 -13 -12 -13 -12
-4 -4 -4 -4 -5 -6 -6 -8 -8 -8 -8 -8 -8 -8 -10 -11 -11 -11 -12 -14 -14 -15 -15 -14 -14 -13 -12 -11 -11 -11 -11 -10 -10 -10 -11 -11 -10 -10 -10 -11 -11 -11 -12 -12 -12 -12 -13 -13 -13 -14 -13 -12 -12 -12
-5 -4 -5 -5 -5 -6 -9 -8 -8 -9 -13 -10 -9 -11 -11 -11 -10 -10 -13 -14 -14 -15 -14 -14 -14 -13 -12 -12 -11 -11 -11 -11 -10 -11 -11 -11 -12 -12 -12 -12 -12 -12 -12 -12 -12 -13 -12 -13 -13 -13 -12 -12 -12 -12
-5 -5 -6 -7 -8 -10 -8 -9 -9 -10 -10 -14 -20 -16 -12 -12 -10 -12 -13 -14 -15 -14 -13 -13 -13 -12 -12 -11 -11 -11 -11 -12 -12 -12 -12 -12 -11 -12 -12 -12 -12 -13 -13 -13 -12 -13 -13 -13 -13 -13 -13 -12 -12 -12
-6 -9 -9 -11 -10 -10 -18 -17 -15 -15 -17 -19 -19 -18 -13 -11 -13 -13 -13 -14 -14 -14 -14 -13 -13 -12 -12 -13 -12 -12 -12 -11 -11 -11 -12 -12 -12 -12 -12 -12 -12 -12 -13 -13 -13 -13 -14 -14 -13 -13 -13 -13 -12 -13
-14 -11 -11 -12 -12 -14 -16 -16 -18 -18 -19 -19 -17 -13 -12 -14 -15 -14 -14 -15 -15 -14 -13 -13 -12 -12 -12 -12 -12 -11 -11 -11 -11 -12 -12 -12 -12 -12 -13 -13 -13 -13 -14 -14 -14 -14 -14 -13 -13 -13 -13 -13 -13 -12
-14 -14 -12 -12 -12 -12 -13 -13 -13 -15 -20 -18 -18 -18 -19 -18 -17 -15 -15 -15 -14 -14 -13 -13 -12 -12 -12 -12 -12 -12 -12 -11 -12 -12 -13 -13 -14 -14 -15 -15 -15 -14 -14 -14 -14 -14 -14 -14 -13 -13 -13 -12 -12 -12
-11 -11 -14 -12 -12 -13 -15 -16 -19 -19 -17 -15 -14 -20 -19 -17 -16 -15 -15 -15 -14 -14 -13 -13 -12 -12 -12 -12 -12 -12 -12 -12 -12 -12 -13 -14 -14 -15 -15 -15 -14 -14 -14 -13 -13 -13 -13 -14 -14 -13 -12 -12 -11 -11
-12 -12 -12 -13 -13 -14 -15 -16 -15 -16 -15 -15 -17 -19 -17 -16 -16 -15 -15 -14 -14 -13 -13 -13 -12 -12 -12 -12 -12 -12 -12 -12 -12 -12 -12 -13 -13 -13 -13 -13 -13 -13 -12 -12 -13 -13 -13 -13 -13 -12 -12 -11 -11 -11
-12 -12 -12 -13 -16 -18 -15 -15 -15 -16 -16 -15 -16 -16 -16 -15 -15 -15 -15 -14 -14 -14 -13 -13 -12 -12 -12 -12 -12 -12 -12 -12 -12 -12 -12 -13 -13 -13 -13 -13 -13 -13 -13 -13 -12 -12 -12 -12 -12 -12 -12 -11 -11 -10
-12 -12 -12 -13 -15 -15 -15 -15 -15 -15 -15 -15 -15 -15 -15 -15 -15 -14 -14 -14 -14 -13 -13 -13 -13 -12 -12 -12 -12 -12 -12 -12 -13 -13 -13 -13 -13 -14 -14 -14 -14 -14 -13 -13 -12 -12 -12 -12 -12 -12 -11 -11 -11 -10
-13 -13 -13 -15 -14 -14 -15 -14 -14 -14 -14 -14 -14 -14 -14 -15 -14 -14 -14 -14 -14 -14 -13 -13 -13 -13 -13 -12 -12 -12 -12 -12 -13 -13 -13 -13 -13 -13 -14 -15 -13 -13 -13 -12 -12 -12 -12 -12 -12 -12 -12 -11 -11 -11
-13 -13 -13 -14 -14 -14 -14 -14 -14 -15 -15 -15 -15 -15 -15 -14 -14 -14 -14 -14 -14 -14 -14 -13 -13 -13 -13 -13 -13 -12 -13 -13 -13 -13 -13 -13 -13 -14 -16 -14 -13 -13 -12 -12 -12 -12 -12 -12 -12 -12 -12 -12 -11 -11
Height
1514 1508 1503 1499 1493 1488 1482 1477 1472 1467 1462 1457 1453 1450 1447 1445 1443 1440 1435 1435 1433 1426 1423 1421 1420 1420 1418 1418 1415 1409 1412 1399 1399 1390 1380 1368 1345 1331 1340 1332 1336 1348 1362 1365 1374 1387 1369 1359 1356 1357 1355 1346 1344 1350
1511 1504 1497 1492 1489 1484 1478 1473 1468 1462 1457 1452 1448 1444 1441 1439 1437 1434 1430 1429 1428 1424 1418 1414 1409 1408 1408 1404 1405 1404 1405 1400 1400 1391 1386 1378 1368 1362 1329 1338 1331 1341 1334 1350 1351 1358 1364 1361 1359 1355 1351 1350 1351 1353
1508 1501 1494 1487 1484 1480 1474 1469 1463 1458 1453 1448 1444 1439 1436 1433 1430 1428 1424 1422 1420 1415 1408 1402 1396 1396 1396 1393 1393 1394 1391 1392 1391 1387 1382 1375 1369 1351 1328 1331 1335 1339 1340 1352 1357 1367 1365 1363 1361 1357 1357 1357 1361 1363
1505 1498 1492 1486 1481 1476 1470 1464 1459 1453 1448 1443 1439 1434 1430 1427 1423 1421 1418 1417 1415 1412 1404 1391 1390 1386 1383 1383 1382 1380 1379 1381 1383 1382 1379 1376 1367 1349 1334 1328 1337 1350 1348 1357 1367 1368 1366 1366 1366 1363 1365 1367 1369 1377
1502 1495 1490 1484 1479 1474 1467 1462 1456 1450 1443 1437 1431 1427 1423 1420 1416 1414 1411 1408 1407 1410 1402 1388 1383 1375 1374 1373 1372 1372 1371 1371 1373 1373 1370 1364 1353 1347 1336 1336 1352 1355 1354 1356 1354 1355 1357 1368 1371 1370 1371 1377 1381 1382
1498 1494 1488 1482 1477 1471 1464 1458 1451 1445 1438 1431 1426 1421 1416 1413 1411 1409 1405 1402 1402 1403 1401 1393 1378 1371 1370 1367 1365 1364 1364 1364 1365 1363 1357 1354 1354 1351 1346 1355 1366 1357 1354 1355 1358 1360 1365 1370 1375 1378 1379 1386 1391 1394
1495 1491 1486 1480 1473 1467 1459 1453 1446 1438 1431 1423 1417 1412 1408 1405 1404 1405 1404 1402 1401 1401 1399 1390 1379 1371 1368 1364 1362 1361 1361 1362 1360 1358 1359 1359 1358 1355 1360 1366 1373 1364 1360 1360 1365 1367 1372 1381 1384 1387 1390 1395 1400 1406
1492 1488 1482 1476 1469 1461 1454 1447 1439 1431 1423 1414 1407 1401 1396 1393 1393 1395 1396 1398 1398 1398 1396 1391 1381 1372 1370 1366 1363 1362 1363 1365 1366 1366 1366 1366 1366 1367 1374 1380 1380 1377 1373 1370 1374 1378 1381 1387 1391 1396 1401 1404 1409 1417
1490 1484 1478 1471 1464 1456 1449 1441 1433 1424 1414 1405 1398 1393 1392 1392 1393 1393 1394 1395 1395 1399 1393 1389 1382 1378 1372 1369 1366 1365 1365 1369 1374 1375 1375 1377 1377 1383 1386 1384 1385 1388 1386 1385 1387 1391 1395 1399 1402 1407 1411 1416 1420 1429
1487 1481 1474 1466 1458 1452 1444 1436 1427 1418 1410 1401 1397 1395 1395 1395 1391 1390 1391 1391 1392 1392 1392 1390 1386 1383 1381 1375 1370 1367 1366 1370 1376 1383 1385 1389 1395 1396 1393 1393 1393 1395 1396 1398 1396 1403 1407 1409 1414 1419 1425 1430 1434 1438
1484 1477 1470 1462 1455 1448 1440 1432 1423 1414 1407 1403 1400 1398 1397 1394 1392 1391 1392 1392 1393 1391 1393 1391 1388 1386 1382 1380 1375 1374 1374 1377 1385 1393 1395 1410 1414 1412 1407 1405 1405 1406 1408 1411 1413 1417 1420 1422 1427 1431 1435 1438 1442 1446
1480 1473 1465 1458 1452 1444 1436 1428 1420 1414 1408 1406 1403 1400 1398 1396 1395 1397 1403 1398 1398 1399 1396 1393 1390 1387 1384 1382 1379 1380 1382 1387 1398 1401 1407 1423 1428 1424 1420 1419 1419 1420 1422 1424 1426 1428 1430 1432 1436 1438 1441 1444 1447 1449
1477 1469 1462 1456 1449 1441 1433 1426 1420 1413 1408 1406 1405 1404 1404 1406 1411 1416 1412 1407 1403 1401 1399 1395 1392 1389 1387 1385 1384 1386 1392 1401 1405 1414 1428 1436 1435 1431 1430 1431 1431 1432 1433 1434 1436 1437 1439 1441 1443 1444 1446 1449 1451 1453
1474 1466 1460 1454 1446 1439 1432 1426 1419 1414 1410 1410 1411 1417 1420 1423 1422 1419 1419 1414 1407 1403 1399 1396 1394 1392 1389 1388 1390 1396 1404 1403 1416 1429 1440 1443 1441 1440 1440 1440 1439 1440 1441 1442 1444 1445 1445 1446 1448 1449 1451 1453 1455 1456
1470 1464 1457 1451 1444 1438 1433 1427 1422 1417 1416 1419 1423 1432 1430 1430 1425 1423 1419 1412 1407 1403 1400 1396 1394 1393 1392 1394 1398 1403 1411 1422 1430 1439 1445 1446 1446 1446 1445 1445 1446 1446 1447 1447 1448 1449 1450 1451 1452 1453 1454 1455 1456 1457
1468 1461 1456 1450 1444 1439 1434 1429 1425 1423 1426 1431 1437 1438 1434 1428 1425 1420 1416 1411 1405 1402 1398 1398 1398 1400 1403 1408 1413 1419 1425 1431 1442 1446 1448 1450 1450 1450 1451 1451 1451 1451 1452 1453 1453 1453 1454 1454 1455 1455 1456 1456 1457 1457
1467 1462 1456 1450 1445 1441 1437 1432 1430 1433 1438 1444 1445 1443 1438 1434 1430 1424 1417 1411 1405 1402 1401 1401 1409 1412 1411 1420 1426 1429 1434 1442 1445 1449 1451 1454 1455 1456 1456 1455 1456 1457 1457 1456 1456 1456 1456 1457 1458 1458 1458 1457 1457 1457
1466 1462 1457 1451 1445 1441 1440 1437 1440 1446 1449 1450 1447 1444 1440 1437 1431 1424 1418 1411 1406 1404 1405 1411 1415 1423 1426 1433 1440 1446 1447 1448 1450 1454 1457 1459 1459 1459 1459 1459 1460 1460 1460 1459 1459 1459 1459 1459 1459 1459 1459 1458 1458 1457
1467 1462 1458 1453 1447 1444 1444 1446 1448 1451 1453 1452 1451 1448 1444 1440 1434 1428 1421 1415 1411 1409 1412 1422 1435 1446 1448 1450 1452 1452 1453 1455 1458 1461 1462 1463 1464 1464 1464 1464 1464 1463 1463 1462 1462 1461 1461 1461 1460 1459 1458 1457 1456 1456
1467 1463 1459 1455 1450 1448 1450 1453 1455 1454 1455 1456 1452 1450 1448 1445 1440 1432 1427 1423 1419 1420 1432 1448 1458 1461 1460 1459 1459 1459 1461 1463 1463 1464 1466 1467 1467 1467 1466 1466 1465 1465 1465 1464 1463 1462 1461 1460 1459 1458 1457 1456 1455 1455
1466 1463 1459 1457 1454 1454 1457 1458 1459 1459 1458 1457 1455 1453 1452 1448 1445 1443 1441 1440 1436 1447 1461 1467 1467 1465 1464 1464 1463 1464 1464 1466 1466 1467 1469 1469 1469 1469 1468 1467 1467 1466 1465 1465 1464 1463 1461 1460 1458 1457 1456 1455 1454 1454
1466 1463 1461 1459 1459 1459 1462 1463 1463 1462 1461 1460 1458 1457 1457 1457 1456 1456 1458 1455 1466 1474 1475 1475 1473 1472 1471 1469 1469 1469 1470 1470 1470 1470 1471 1472 1472 1471 1470 1470 1469 1467 1466 1465 1464 1462 1460 1459 1458 1456 1455 1454 1453 1453
1466 1464 1463 1462 1462 1463 1469 1466 1465 1465 1464 1465 1464 1465 1467 1467 1467 1467 1472 1479 1483 1483 1481 1479 1478 1477 1475 1475 1475 1475 1475 1475 1475 1474 1474 1474 1474 1473 1472 1471 1469 1468 1467 1465 1463 1461 1459 1458 1457 1456 1455 1454 1454 1454
1466 1465 1465 1466 1468 1469 1469 1469 1469 1469 1469 1471 1473 1477 1475 1474 1475 1477 1485 1489 1490 1488 1485 1484 1483 1481 1481 1479 1478 1478 1478 1479 1478 1478 1477 1477 1475 1474 1472 1471 1470 1468 1466 1464 1462 1461 1460 1458 1456 1455 1454 1454 1453 1453
1469 1473 1473 1472 1473 1472 1475 1475 1474 1474 1481 1480 1480 1481 1479 1478 1481 1485 1489 1491 1490 1489 1488 1487 1485 1484 1483 1483 1483 1482 1482 1482 1481 1480 1478 1477 1477 1476 1474 1473 1470 1468 1466 1465 1463 1461 1459 1457 1455 1454 1453 1453 1452 1452
1473 1476 1477 1477 1478 1478 1480 1482 1483 1483 1482 1483 1482 1481 1481 1481 1488 1493 1492 1492 1491 1490 1489 1488 1487 1487 1487 1486 1486 1485 1484 1483 1482 1481 1480 1479 1477 1476 1474 1473 1471 1470 1467 1464 1461 1459 1457 1455 1453 1452 1451 1451 1450 1449
1477 1479 1479 1480 1480 1480 1481 1481 1482 1482 1486 1487 1484 1483 1485 1494 1496 1493 1493 1492 1491 1491 1490 1490 1490 1489 1489 1488 1488 1486 1486 1485 1484 1483 1481 1480 1479 1478 1476 1474 1471 1469 1465 1462 1460 1457 1455 1453 1451 1450 1449 1448 1447 1446
1479 1480 1481 1482 1481 1481 1482 1483 1484 1487 1485 1485 1485 1490 1492 1491 1492 1492 1492 1492 1491 1491 1491 1491 1491 1491 1490 1489 1489 1488 1487 1486 1484 1483 1483 1481 1480 1478 1476 1474 1471 1468 1465 1461 1458 1456 1453 1451 1449 1447 1445 1444 1444 1443
1481 1481 1482 1482 1483 1483 1484 1485 1486 1486 1486 1485 1486 1488 1489 1489 1490 1490 1491 1491 1491 1491 1491 1491 1491 1491 1490 1490 1489 1488 1487 1486 1486 1484 1483 1481 1479 1478 1474 1471 1468 1465 1462 1459 1457 1454 1451 1449 1446 1444 1442 1441 1440 1440
1482 1482 1482 1483 1484 1486 1486 1486 1486 1486 1485 1486 1487 1488 1489 1490 1490 1491 1492 1492 1492 1492 1492 1491 1491 1491 1491 1490 1489 1488 1487 1485 1484 1483 1480 1478 1476 1474 1471 1468 1465 1462 1460 1457 1454 1452 1450 1447 1445 1443 1441 1440 1438 1437
1483 1482 1482 1483 1485 1487 1487 1487 1487 1487 1487 1487 1488 1488 1489 1490 1491 1492 1492 1492 1492 1492 1492 1491 1490 1490 1490 1489 1488 1487 1486 1485 1483 1481 1479 1477 1475 1472 1470 1467 1464 1461 1459 1456 1453 1451 1448 1446 1443 1441 1440 1438 1437 1436
1483 1483 1483 1484 1487 1488 1488 1488 1488 1488 1489 1489 1489 1490 1490 1491 1491 1492 1492 1492 1492 1492 1492 1491 1490 1489 1489 1488 1487 1486 1485 1483 1481 1480 1478 1476 1474 1471 1467 1465 1462 1460 1458 1455 1452 1449 1447 1445 1443 1441 1439 1437 1436 1434
1484 1484 1484 1485 1486 1487 1488 1488 1489 1489 1489 1489 1489 1490 1490 1490 1490 1491 1491 1491 1492 1491 1491 1490 1489 1489 1488 1487 1486 1484 1483 1481 1479 1477 1475 1473 1470 1468 1466 1463 1460 1458 1455 1453 1451 1448 1447 1445 1443 1441 1439 1437 1435 1433
Wind_Speed
30 31 31 29 27 28 29 28 28 27 27 27 26 24 21 20 21 20 21 17 17 9 21 28 27 24 16 12 9 14 12 5 3 4 4 2 7 9 4 9 13 10 8 6 2 3 6 5 3 6 3 7 11 30
32 32 32 30 23 24 27 29 29 29 30 29 28 26 22 21 22 21 24 21 21 20 26 35 36 36 36 40 34 22 13 8 5 3 3 3 7 6 3 6 1 6 9 6 6 5 2 6 4 5 4 12 18 35
31 31 30 26 24 24 26 27 30 31 29 27 27 26 24 22 22 21 23 24 24 18 23 20 24 34 25 25 26 16 15 18 14 23 3 2 5 7 4 3 5 3 5 5 5 4 3 8 15 15 17 26 31 41
28 28 28 27 26 26 28 29 29 29 28 27 26 26 25 22 22 21 24 20 19 11 6 20 18 27 34 26 23 30 36 28 27 22 7 4 5 6 3 4 4 3 4 4 5 2 12 16 19 28 33 36 40 38
28 29 28 28 28 28 29 30 32 33 33 32 30 27 27 26 23 21 22 24 22 11 5 16 32 17 11 16 21 26 31 32 18 4 4 5 3 4 1 3 4 5 2 2 3 9 10 13 24 33 37 36 40 46
29 30 29 28 29 30 31 32 34 35 34 33 30 30 29 24 21 18 7 5 2 3 6 4 14 18 12 15 15 14 17 14 14 7 2 4 7 4 3 3 9 14 5 4 3 21 32 32 32 37 41 38 40 45
30 30 30 31 32 32 34 36 38 37 37 35 32 30 28 26 21 11 6 5 10 9 5 3 4 4 12 11 4 4 1 6 4 3 4 4 6 10 3 3 9 20 27 34 36 40 32 31 34 40 43 41 43 44
31 31 32 32 33 34 34 36 38 39 38 36 33 29 26 21 12 9 13 15 13 9 6 2 4 4 13 6 4 7 4 7 14 6 5 5 6 4 5 7 20 24 30 33 33 35 38 40 43 41 43 47 47 45
33 34 34 34 34 34 34 37 39 40 38 34 25 15 6 4 2 2 6 7 12 7 3 3 4 4 13 6 6 5 4 2 4 5 4 6 4 6 4 16 20 22 27 32 38 40 40 39 39 43 42 43 43 39
34 37 36 35 35 35 36 38 38 36 36 24 12 6 5 13 12 8 3 4 5 3 4 2 6 3 9 5 3 4 5 2 2 5 6 6 6 25 21 25 32 33 35 36 40 36 36 36 37 40 36 34 34 32
36 38 37 35 34 37 36 37 35 34 29 17 10 4 11 10 7 5 3 5 5 1 7 6 4 3 7 2 2 7 2 3 3 5 3 5 6 14 29 33 36 39 44 41 40 36 37 37 36 34 31 30 28 25
37 38 36 33 31 36 35 34 30 29 21 12 10 8 8 7 4 4 2 4 3 3 7 6 7 5 5 5 2 5 3 3 5 3 3 3 5 18 24 28 28 30 30 30 33 33 32 32 30 29 27 24 21 19
37 37 31 28 34 32 31 30 27 22 16 5 7 4 7 8 7 5 7 3 3 7 6 9 4 7 5 4 3 3 5 4 0 4 3 3 11 18 22 26 28 28 29 29 29 29 28 27 24 23 22 18 16 14
38 34 26 32 32 30 27 25 26 21 8 6 8 7 4 4 4 4 6 6 8 12 16 13 4 2 4 2 2 5 2 2 4 4 3 2 10 15 19 23 26 27 27 27 25 24 22 21 20 18 16 14 11 10
37 32 26 33 31 26 25 18 20 16 9 7 8 6 5 10 7 17 19 13 13 15 15 6 3 2 3 4 3 2 4 5 5 3 2 9 16 19 21 23 23 23 22 21 19 19 18 16 14 14 11 9 7 6
36 30 32 31 30 21 22 13 20 11 6 6 7 7 15 8 9 16 20 17 15 18 10 2 2 3 5 3 5 5 4 4 3 3 14 18 20 20 20 20 19 18 17 17 16 14 13 11 11 10 8 6 5 5
32 29 29 29 27 14 20 15 8 9 7 6 6 17 17 7 12 21 20 15 19 8 2 3 5 4 2 4 3 4 4 7 17 21 20 19 18 17 17 17 16 15 14 14 13 12 11 10 8 6 7 7 6 5
27 25 27 27 26 12 14 14 6 7 6 7 5 19 19 16 19 22 19 19 9 5 4 4 6 7 5 4 3 4 14 24 26 23 20 17 17 16 15 16 14 13 12 12 11 11 9 8 7 7 6 5 4 4
22 22 24 22 21 9 5 8 7 4 5 5 14 19 21 20 22 21 24 18 14 11 7 7 7 5 4 8 11 16 18 20 24 23 20 17 15 14 14 12 12 11 10 10 9 10 8 8 8 7 6 5 5 6
15 17 18 15 16 5 5 6 6 4 5 8 14 13 15 23 27 32 35 31 24 12 14 6 5 8 7 13 18 19 19 19 21 22 19 16 14 12 12 11 11 10 9 8 8 9 8 7 7 7 6 7 6 5
14 15 16 14 9 10 6 6 6 5 5 5 16 9 8 17 30 31 28 22 22 10 8 13 15 16 18 19 20 19 17 15 16 16 14 14 12 11 11 11 10 9 9 9 9 9 9 9 8 9 8 6 5 4
16 12 10 10 8 5 6 11 4 5 5 6 8 11 8 9 12 19 19 19 10 12 12 16 16 18 20 21 21 20 18 16 16 16 14 10 11 11 11 11 10 10 10 12 12 12 11 9 9 8 7 6 5 4
11 7 4 9 4 6 3 8 3 7 4 8 5 5 6 8 11 9 8 9 9 16 13 14 15 16 18 17 17 17 17 15 15 15 13 13 12 11 10 10 10 10 10 12 13 13 12 10 8 8 6 5 4 2
7 4 5 5 8 3 4 5 4 5 4 6 4 3 4 7 7 7 3 4 10 12 14 14 13 15 17 17 17 16 16 14 13 12 13 10 11 14 13 12 11 11 13 14 14 13 10 9 8 7 6 5 3 1
2 6 5 5 6 4 5 6 7 6 2 3 3 4 4 5 3 3 2 4 9 12 11 12 15 17 18 17 15 13 10 9 11 11 11 11 10 8 9 12 13 13 13 14 13 13 12 9 7 6 5 4 1 5
5 6 4 5 4 3 1 2 2 1 1 3 1 3 3 3 4 2 1 4 5 7 8 9 10 11 13 13 12 12 12 10 9 9 10 11 11 13 14 15 15 14 13 15 16 16 14 11 9 7 5 4 5 5
3 1 3 4 2 2 3 3 2 5 3 2 3 4 3 4 1 1 1 2 2 3 4 5 5 6 6 7 8 9 11 11 9 8 6 8 9 11 14 17 18 19 18 16 14 14 15 13 10 8 7 6 6 6
4 3 2 2 3 4 3 3 2 1 1 3 1 3 4 5 3 4 3 0 2 3 3 3 3 3 4 5 6 6 6 9 10 8 6 8 7 9 10 12 13 16 15 13 14 14 14 12 12 12 11 9 7 7
4 3 2 3 2 4 4 2 1 0 2 1 2 1 2 3 5 5 4 3 3 2 1 2 2 2 4 5 5 6 7 7 7 6 7 8 9 11 12 15 16 18 18 16 14 13 13 12 13 12 10 8 7 6
4 4 2 2 3 1 2 2 2 2 2 3 4 5 6 6 6 6 5 5 4 3 2 1 1 0 2 4 6 6 8 11 12 11 12 14 15 15 16 18 20 21 21 19 16 14 13 11 9 8 7 7 7 6
3 1 2 3 3 3 6 7 7 5 4 4 5 4 6 5 5 5 4 4 3 4 4 4 2 1 2 5 6 5 7 10 12 13 14 14 15 15 16 19 21 22 20 19 16 15 15 14 13 11 9 8 7 6
3 2 2 2 2 7 3 1 1 2 2 1 2 2 3 3 4 5 4 2 2 3 4 4 3 2 3 6 7 6 7 11 13 14 13 13 13 14 16 20 20 18 17 17 16 15 14 14 14 13 11 10 8 7
2 3 3 3 3 3 3 2 1 1 1 1 1 2 1 1 2 3 3 3 2 0 2 4 5 5 5 7 9 10 11 13 15 16 16 16 15 14 15 19 18 17 16 15 15 14 13 13 12 12 11 10 9 8
Wind_Direction
336 329 321 319 324 327 328 331 331 329 325 323 320 317 314 315 311 313 305 304 290 276 289 277 269 264 264 251 264 272 318 282 235 243 256 253 257 217 134 180 168 164 181 196 153 106 268 13 308 198 286 309 194 154
339 333 325 319 319 324 326 328 330 328 324 321 320 315 311 309 305 305 300 307 301 284 274 286 282 279 268 271 264 262 242 268 267 287 257 281 291 296 185 170 118 158 179 170 176 185 306 352 346 3 120 105 116 129
343 343 340 340 331 333 331 328 329 330 331 331 327 323 319 313 305 302 302 301 301 287 292 276 280 301 289 275 269 242 242 235 241 238 288 285 272 295 220 201 109 52 7 107 144 344 34 46 81 101 125 110 115 124
349 350 350 347 343 338 335 336 336 332 326 322 320 317 313 312 307 304 302 303 297 282 265 283 286 288 301 286 267 252 254 251 249 267 254 258 260 241 287 105 81 348 16 103 82 71 80 65 92 107 107 114 113 114
351 352 352 349 346 344 343 340 340 335 331 329 325 318 311 308 305 302 296 294 285 252 267 289 298 310 303 302 259 257 254 257 247 215 214 227 251 306 12 72 51 344 13 158 209 161 110 118 110 113 107 107 112 115
351 348 346 343 342 341 337 336 334 333 329 323 318 316 315 314 313 316 303 287 318 159 292 303 298 296 301 313 295 266 260 262 214 213 221 340 333 310 47 69 358 339 241 251 118 114 108 106 105 110 107 108 112 117
347 345 341 339 336 334 333 332 331 328 328 322 315 309 306 298 293 256 244 285 297 304 270 282 284 282 341 330 316 323 315 57 358 21 22 354 352 357 30 55 10 37 92 103 110 110 97 100 105 106 109 110 115 117
345 341 338 335 334 334 334 332 330 328 326 323 318 311 300 296 285 253 247 247 266 272 249 276 272 312 1 323 323 4 61 39 17 24 6 8 10 1 55 62 64 68 86 89 93 99 103 106 104 104 110 118 114 114
346 343 339 336 335 335 335 336 332 328 329 333 329 332 15 37 51 155 193 277 282 270 274 283 337 315 347 326 350 334 109 72 48 54 29 30 11 44 359 81 80 87 90 100 99 101 102 99 101 109 116 115 112 116
344 342 339 337 338 339 338 335 333 332 343 347 351 10 16 336 322 302 238 189 197 211 237 246 342 297 337 326 336 327 26 70 63 43 45 31 41 20 59 75 87 91 95 96 92 90 94 88 95 102 106 113 117 119
339 338 338 336 337 341 338 337 338 338 350 358 350 343 337 344 10 30 40 27 348 94 357 340 346 305 350 323 325 10 40 37 59 23 56 27 18 17 63 78 86 93 101 98 97 98 101 105 111 117 117 115 115 116
339 337 338 337 342 343 340 342 343 343 348 339 331 329 343 4 9 62 343 350 22 20 335 324 326 315 328 341 329 11 62 38 72 357 59 49 360 28 66 74 82 93 100 106 111 113 115 115 115 113 112 112 111 109
338 343 343 346 349 347 344 346 347 347 351 360 2 11 4 357 28 38 345 340 335 352 334 328 316 346 336 338 26 50 61 62 82 43 59 29 12 56 75 95 100 105 106 106 106 108 108 107 107 107 107 105 107 110
339 346 345 349 352 351 349 351 354 0 12 32 18 17 50 359 16 2 324 305 315 335 326 328 312 334 329 26 16 70 40 51 69 64 49 1 53 88 103 106 105 100 101 101 100 101 101 101 100 100 99 101 103 104
343 350 352 355 357 356 353 356 4 16 36 46 31 19 12 317 318 335 327 316 324 330 335 335 301 360 353 59 38 87 55 59 47 66 71 71 99 107 103 101 101 97 95 93 93 91 90 90 91 92 90 87 82 76
346 351 354 356 359 360 3 8 19 35 47 51 47 343 332 328 326 339 337 326 340 327 336 294 14 53 37 49 44 23 65 57 93 91 96 111 105 102 100 96 93 92 89 88 86 83 83 80 75 71 66 58 46 31
350 353 351 353 357 4 15 30 32 40 43 32 351 356 347 313 328 330 326 321 333 325 8 46 43 18 22 50 41 19 43 97 95 87 104 104 100 98 97 95 90 87 85 81 78 75 73 70 64 57 45 33 18 3
350 352 351 352 353 5 24 33 63 53 40 8 358 356 4 2 349 349 347 354 19 34 27 53 47 20 48 33 43 72 80 87 101 103 100 98 97 93 88 85 81 76 74 71 66 65 65 55 41 33 16 4 346 340
345 350 352 354 357 17 33 35 42 81 43 8 13 22 20 22 21 20 31 43 65 77 71 51 60 15 34 17 66 74 89 101 103 98 93 91 90 87 84 81 78 73 68 63 55 47 41 31 21 13 10 358 349 347
347 354 356 3 11 34 54 37 30 40 34 351 4 21 37 36 30 40 46 43 58 53 42 44 36 20 33 50 77 98 105 109 110 101 89 82 77 78 73 66 63 57 52 48 39 30 25 15 9 11 9 345 352 355
352 360 6 13 29 50 58 19 41 30 348 19 2 9 19 32 33 32 31 47 54 35 53 36 49 64 79 87 93 97 103 110 98 95 95 84 71 65 61 56 49 44 39 34 27 20 12 15 10 0 2 6 360 353
345 357 10 16 32 55 49 19 27 6 2 351 10 14 20 12 13 20 32 41 50 29 33 44 68 82 85 84 85 87 88 90 91 89 84 84 76 64 54 48 42 36 31 25 16 10 7 360 358 355 354 356 358 351
344 360 31 20 56 37 29 10 34 16 48 359 9 29 19 9 13 21 56 37 40 32 54 65 66 78 85 89 91 88 84 83 82 77 71 63 59 54 45 36 31 27 22 17 11 1 355 354 347 345 351 347 340 317
1 38 32 35 26 21 359 32 30 17 43 24 41 18 7 8 17 60 70 51 22 45 62 74 87 90 90 89 83 78 73 69 72 73 69 59 51 43 33 25 20 13 7 3 358 352 343 341 343 337 331 331 328 318
3 20 24 16 23 25 26 7 1 35 38 339 65 353 354 9 58 55 58 17 19 39 54 64 72 72 73 72 70 69 68 63 57 52 48 42 38 37 34 21 10 3 355 352 353 355 357 349 341 334 331 327 344 317
74 25 38 16 12 61 327 42 24 323 50 27 344 342 0 70 65 60 55 1 14 28 49 62 68 73 72 70 68 63 54 44 32 23 23 21 20 19 15 10 11 10 2 356 352 350 349 348 346 339 327 306 305 306
76 4 60 45 58 73 73 73 72 69 65 43 316 7 56 70 175 154 171 19 30 43 69 80 79 75 64 53 42 38 34 27 24 23 21 15 13 9 8 4 0 358 358 351 345 343 341 341 341 336 319 303 297 293
72 53 75 26 74 49 111 57 63 84 280 350 299 43 133 172 181 169 169 111 96 115 99 90 85 68 49 32 21 18 16 17 22 19 17 12 12 5 4 357 356 356 353 352 350 345 341 337 331 325 320 310 294 270
57 30 44 62 76 58 53 68 109 319 329 15 112 152 149 129 140 135 126 110 100 110 122 98 61 46 40 26 18 21 19 16 15 17 20 17 13 6 359 357 358 0 2 1 357 349 346 336 326 326 326 321 310 288
27 25 77 70 75 31 48 51 52 67 109 122 109 113 113 124 133 129 121 109 95 84 77 106 163 125 6 3 11 15 10 6 4 4 5 3 358 356 353 354 357 360 358 354 351 353 355 353 347 335 326 322 315 302
354 54 79 73 95 90 111 104 93 87 86 89 107 126 128 137 143 141 135 119 91 64 41 31 34 21 4 4 360 348 350 356 357 353 349 346 345 345 346 348 353 351 348 347 347 349 352 356 357 356 351 344 332 315
16 60 83 107 118 155 144 56 80 99 110 101 119 129 142 149 169 172 159 150 137 46 36 31 31 36 13 360 354 343 335 339 341 339 334 332 332 340 346 339 340 342 342 344 345 346 348 351 353 355 355 352 344 332
45 65 83 100 124 170 177 160 91 102 113 115 121 140 167 168 170 177 201 201 178 126 20 18 17 10 348 336 337 336 331 332 332 331 332 333 335 337 334 327 332 334 337 342 344 342 344 346 348 352 352 351 349 344